Anaktuvuk Pass, AK

10:47 AM AKDT on March 27, 2017 (GMT -0800)
Anaktuvuk Pass

Weather History for PAKP - July, 2014

Change the Weather History Date:

Friday, July 4, 2014

  Actual Average Record
Temperature  
Mean Temperature 52 °F -  
Max Temperature 66 °F 58 °F 73 °F (1999)
Min Temperature 37 °F 42 °F 28 °F (2002)
Degree Days  
Heating Degree Days 14    
Growing Degree Days 2 (Base 50)    
Moisture  
Dew Point 38 °F    
Average Humidity 58    
Maximum Humidity 87    
Minimum Humidity 32    
Precipitation  
Precipitation 0.00 in - - ()
Sea Level Pressure  
Sea Level Pressure 29.88 in    
Wind  
Wind Speed 3 mph (North)    
Max Wind Speed 12 mph    
Max Gust Speed 16 mph    
Visibility 10 miles    
Events      
Averages and records for this station are not official NWS values.
T = Trace of Precipitation, MM = Missing Value Source: NWS Daily Summary

Daily Weather History Graph

Daily Weather History Graph

Search for Another Location

Airport or City:

Trip Planner

Search our weather history database for the weather conditions in past years. The results will help you decide how hot, cold, wet, or windy it might be!

Date:

Astronomy

Jul. 04, 2014 Rise Set
Actual Time 2:43 AM AKDT 1:39 AM AKDT
Civil Twilight Sun does not rise Sun does not rise
Nautical Twilight Sun does not rise Sun does not rise
Astronomical Twilight Sun does not rise Sun does not rise
Moon 2:17 PM AKDT (7/4) 12:54 AM AKDT (7/4)
Length of Visible Light 24h 00m
Length of Day
22h 55m
Waxing Crescent, 43% of the Moon is Illuminated
Jul 4
Waxing Crescent
Jul 5
First Quarter
Jul 12
Full
Jul 18
Last Quarter
Jul 26
New

Hourly Weather History & Observations

Time (AKDT) Temp. Windchill Dew Point Humidity Pressure Visibility Wind Dir Wind Speed Gust Speed Precip Events Conditions
12:16 AM 44.6 °F 42.2 °F 39.2 °F 81% 29.89 in 10.0 mi North 4.6 mph - N/A   Clear
12:36 AM 44.6 °F 42.2 °F 37.4 °F 76% 29.89 in 10.0 mi North 4.6 mph - N/A   Clear
12:56 AM 44.6 °F 42.2 °F 39.2 °F 81% 29.89 in 10.0 mi North 4.6 mph - N/A   Clear
1:16 AM 42.8 °F - 37.4 °F 81% 29.90 in 10.0 mi Calm Calm - N/A   Clear
1:36 AM 41.0 °F - 37.4 °F 87% 29.90 in 10.0 mi Calm Calm - N/A   Clear
1:56 AM 39.2 °F - 35.6 °F 87% 29.90 in 10.0 mi Calm Calm - N/A   Clear
2:16 AM 39.2 °F - 35.6 °F 87% 29.90 in 10.0 mi Calm Calm - N/A   Clear
2:36 AM 39.2 °F - 35.6 °F 87% 29.90 in 10.0 mi Calm Calm - N/A   Clear
2:56 AM 39.2 °F - 33.8 °F 81% 29.91 in 10.0 mi Calm Calm - N/A   Clear
3:16 AM 37.4 °F - 32.0 °F 81% 29.91 in 10.0 mi Calm Calm - N/A   Clear
3:36 AM 39.2 °F - 33.8 °F 81% 29.91 in 10.0 mi Calm Calm - N/A   Clear
3:56 AM 37.4 °F - 33.8 °F 87% 29.91 in 10.0 mi Calm Calm - N/A   Clear
4:16 AM 39.2 °F - 33.8 °F 81% 29.91 in 10.0 mi Calm Calm - N/A   Partly Cloudy
4:36 AM 39.2 °F - 33.8 °F 81% 29.91 in 10.0 mi Calm Calm - N/A   Clear
4:56 AM 39.2 °F - 33.8 °F 81% 29.91 in 10.0 mi Calm Calm - N/A   Clear
5:16 AM 39.2 °F - 35.6 °F 87% 29.91 in 10.0 mi Calm Calm - N/A   Clear
5:36 AM 42.8 °F - 37.4 °F 81% 29.91 in 10.0 mi Calm Calm - N/A   Clear
5:56 AM 44.6 °F - 37.4 °F 76% 29.91 in 10.0 mi Calm Calm - N/A   Clear
6:16 AM 44.6 °F - 37.4 °F 76% 29.90 in 10.0 mi Calm Calm - N/A   Clear
6:36 AM 44.6 °F - 37.4 °F 76% 29.90 in 10.0 mi Calm Calm - N/A   Clear
6:56 AM 46.4 °F - 39.2 °F 76% 29.91 in 10.0 mi Calm Calm - N/A   Clear
7:16 AM 48.2 °F - 39.2 °F 71% 29.91 in 10.0 mi Calm Calm - N/A   Clear
7:36 AM 48.2 °F - 39.2 °F 71% 29.91 in 10.0 mi Calm Calm - N/A   Clear
7:56 AM 51.8 °F - 39.2 °F 62% 29.91 in 10.0 mi North 5.8 mph - N/A   Clear
8:16 AM 51.8 °F - 39.2 °F 62% 29.91 in 10.0 mi North 5.8 mph - N/A   Partly Cloudy
8:36 AM 51.8 °F - 39.2 °F 62% 29.91 in 10.0 mi North 4.6 mph - N/A   Partly Cloudy
8:56 AM 53.6 °F - 39.2 °F 58% 29.91 in 10.0 mi NNE 3.5 mph - N/A   Clear
9:16 AM 53.6 °F - 39.2 °F 58% 29.90 in 10.0 mi NNE 3.5 mph - N/A   Clear
9:36 AM 53.6 °F - 41.0 °F 62% 29.90 in 10.0 mi NNE 4.6 mph - N/A   Clear
9:56 AM 55.4 °F - 39.2 °F 54% 29.90 in 10.0 mi NNE 4.6 mph - N/A   Clear
10:16 AM 55.4 °F - 39.2 °F 54% 29.90 in 10.0 mi NNE 5.8 mph - N/A   Clear
10:36 AM 55.4 °F - 41.0 °F 58% 29.90 in 10.0 mi NE 5.8 mph - N/A   Clear
10:56 AM 57.2 °F - 41.0 °F 55% 29.90 in 10.0 mi NNE 4.6 mph - N/A   Clear
11:16 AM 57.2 °F - 41.0 °F 55% 29.89 in 10.0 mi ENE 3.5 mph - N/A   Clear
11:36 AM 57.2 °F - 41.0 °F 55% 29.89 in 10.0 mi Calm Calm - N/A   Clear
11:56 AM 57.2 °F - 39.2 °F 51% 29.89 in 10.0 mi Calm Calm - N/A   Clear
12:16 PM 60.8 °F - 41.0 °F 48% 29.89 in 10.0 mi SE 3.5 mph - N/A   Scattered Clouds
12:36 PM 60.8 °F - 39.2 °F 45% 29.89 in 10.0 mi SW 3.5 mph - N/A   Partly Cloudy
12:56 PM 60.8 °F - 41.0 °F 48% 29.89 in 10.0 mi South 4.6 mph - N/A   Clear
1:16 PM 60.8 °F - 41.0 °F 48% 29.89 in 10.0 mi South 6.9 mph - N/A   Clear
1:36 PM 62.6 °F - 41.0 °F 45% 29.89 in 10.0 mi South 6.9 mph - N/A   Clear
1:56 PM 62.6 °F - 39.2 °F 42% 29.88 in 10.0 mi SW 5.8 mph - N/A   Clear
2:16 PM 62.6 °F - 39.2 °F 42% 29.88 in 10.0 mi South 4.6 mph - N/A   Clear
2:36 PM 62.6 °F - 39.2 °F 42% 29.88 in 10.0 mi SSW 4.6 mph - N/A   Clear
2:56 PM 62.6 °F - 39.2 °F 42% 29.87 in 10.0 mi SW 4.6 mph - N/A   Clear
3:16 PM 64.4 °F - 37.4 °F 37% 29.87 in 10.0 mi SSE 3.5 mph - N/A   Clear
3:36 PM 64.4 °F - 37.4 °F 37% 29.87 in 10.0 mi SW 3.5 mph - N/A   Clear
3:56 PM 64.4 °F - 37.4 °F 37% 29.87 in 10.0 mi SSW 6.9 mph - N/A   Clear
4:16 PM 64.4 °F - 37.4 °F 37% 29.86 in 10.0 mi SSW 3.5 mph - N/A   Clear
4:36 PM 64.4 °F - 37.4 °F 37% 29.86 in 10.0 mi WSW 4.6 mph - N/A   Clear
4:56 PM 66.2 °F - 37.4 °F 35% 29.86 in 10.0 mi West 4.6 mph - N/A   Clear
5:16 PM 66.2 °F - 35.6 °F 32% 29.86 in 10.0 mi West 5.8 mph - N/A   Clear
5:36 PM 64.4 °F - 35.6 °F 34% 29.85 in 10.0 mi SSE 4.6 mph - N/A   Clear
5:56 PM 66.2 °F - 35.6 °F 32% 29.85 in 10.0 mi SSW 3.5 mph - N/A   Clear
6:16 PM 64.4 °F - 33.8 °F 32% 29.85 in 10.0 mi Calm Calm - N/A   Clear
6:36 PM 64.4 °F - 33.8 °F 32% 29.85 in 10.0 mi Calm Calm - N/A   Clear
6:56 PM 64.4 °F - 37.4 °F 37% 29.85 in 10.0 mi NNE 6.9 mph - N/A   Clear
7:16 PM 66.2 °F - 39.2 °F 37% 29.85 in 10.0 mi NE 6.9 mph 16.1 mph N/A   Clear
7:36 PM 64.4 °F - 39.2 °F 40% 29.85 in 10.0 mi NNE 11.5 mph - N/A   Clear
7:56 PM 64.4 °F - 37.4 °F 37% 29.85 in 10.0 mi NNE 8.1 mph - N/A   Scattered Clouds
8:16 PM 62.6 °F - 41.0 °F 45% 29.85 in 9.0 mi North 6.9 mph - N/A   Scattered Clouds
8:36 PM 62.6 °F - 39.2 °F 42% 29.85 in 10.0 mi North 4.6 mph - N/A   Scattered Clouds
8:56 PM 62.6 °F - 39.2 °F 42% 29.85 in 10.0 mi NW 6.9 mph - N/A   Scattered Clouds
9:16 PM 62.6 °F - 39.2 °F 42% 29.85 in 10.0 mi NNW 6.9 mph - N/A   Partly Cloudy
9:36 PM 62.6 °F - 39.2 °F 42% 29.86 in 10.0 mi WNW 9.2 mph - N/A   Clear
9:56 PM 60.8 °F - 39.2 °F 45% 29.86 in 10.0 mi NW 5.8 mph - N/A   Clear
10:16 PM 60.8 °F - 39.2 °F 45% 29.87 in 10.0 mi NE 3.5 mph - N/A   Clear
10:36 PM 57.2 °F - 42.8 °F 59% 29.87 in 10.0 mi ENE 8.1 mph - N/A   Clear
10:56 PM 57.2 °F - 42.8 °F 59% 29.87 in 10.0 mi ENE 8.1 mph - N/A   Clear
11:16 PM 57.2 °F - 42.8 °F 59% 29.87 in 10.0 mi NE 6.9 mph - N/A   Clear
11:36 PM 55.4 °F - 42.8 °F 63% 29.88 in 10.0 mi NE 5.8 mph - N/A   Clear
11:56 PM 55.4 °F - 42.8 °F 63% 29.88 in 10.0 mi NE 5.8 mph - N/A   Clear